Change the Weather History Date:

Thursday, January 17, 2013

  Actual Average Record
Temperature  
Mean Temperature 24 °F -  
Max Temperature 34 °F 26 °F 52 °F (1990)
Min Temperature 15 °F 13 °F -5 °F (2011)
Degree Days  
Heating Degree Days 40    
Moisture  
Dew Point 16 °F    
Average Humidity 72    
Maximum Humidity 86    
Minimum Humidity 59    
Precipitation  
Precipitation 0.00 in - - ()
Sea Level Pressure  
Sea Level Pressure 30.11 in    
Wind  
Wind Speed 13 mph (NNE)    
Max Wind Speed 18 mph    
Max Gust Speed 28 mph    
Visibility 8 miles    
Events Snow    
Averages and records for this station are not official NWS values.
T = Trace of Precipitation, MM = Missing Value Source: NWS Daily Summary

Daily Weather History Graph

Daily Weather History Graph

Search for Another Location

Airport or City:

Trip Planner

Search our weather history database for the weather conditions in past years. The results will help you decide how hot, cold, wet, or windy it might be!

Date:

Astronomy

Jan. 17, 2013 Rise Set
Actual Time 7:43 AM EST 5:09 PM EST
Civil Twilight 7:12 AM EST 5:40 PM EST
Nautical Twilight 6:37 AM EST 6:15 PM EST
Astronomical Twilight 6:03 AM EST 6:49 PM EST
Moon 10:37 AM EST (1/17) No Moon Set
Length of Visible Light 10h 28m
Length of Day
9h 25m
Waxing Crescent, 37% of the Moon is Illuminated
Jan 17
Waxing Crescent
Jan 18
First Quarter
Jan 26
Full
Feb 3
Last Quarter
Feb 10
New

Hourly Weather History & Observations

Time (EST) Temp. Windchill Dew Point Humidity Pressure Visibility Wind Dir Wind Speed Gust Speed Precip Events Conditions
12:53 AM 34.0 °F 24.2 °F 24.1 °F 67% 29.90 in 9.0 mi WSW 15.0 mph 25.3 mph 0.00 in   Overcast
1:53 AM 34.0 °F 25.0 °F 25.0 °F 70% 29.93 in 5.0 mi WSW 12.7 mph 23.0 mph 0.00 in Snow Light Snow
2:21 AM 33.8 °F 23.2 °F 24.8 °F 70% 29.90 in 10.0 mi WSW 17.3 mph 24.2 mph 0.00 in   Overcast
2:53 AM 33.8 °F 23.5 °F 24.8 °F 70% 29.91 in 10.0 mi West 16.1 mph 20.7 mph N/A   Overcast
3:53 AM 34.0 °F 24.2 °F 25.0 °F 70% 29.97 in 10.0 mi West 15.0 mph 20.7 mph N/A   Overcast
4:24 AM 33.8 °F 23.5 °F 24.8 °F 70% 29.93 in 10.0 mi West 16.1 mph - N/A   Overcast
4:32 AM 33.8 °F 23.5 °F 24.8 °F 70% 29.94 in 10.0 mi West 16.1 mph - N/A   Overcast
4:53 AM 34.0 °F 23.4 °F 26.1 °F 73% 29.99 in 10.0 mi West 17.3 mph 24.2 mph N/A   Overcast
5:31 AM 32.0 °F 21.2 °F 24.8 °F 75% 29.97 in 10.0 mi NNW 16.1 mph 26.5 mph N/A   Overcast
5:53 AM 32.0 °F 21.6 °F 21.9 °F 66% 30.02 in 10.0 mi NW 15.0 mph 23.0 mph 0.00 in   Overcast
6:53 AM 28.0 °F 15.3 °F 18.0 °F 66% 30.08 in 10.0 mi NNW 18.4 mph 27.6 mph N/A   Overcast
6:58 AM 26.6 °F 15.7 °F 17.6 °F 69% 30.04 in 10.0 mi NNW 12.7 mph 24.2 mph 0.00 in Snow Light Snow
7:45 AM 24.8 °F 12.4 °F 15.8 °F 69% 30.07 in 10.0 mi NNW 15.0 mph - 0.00 in   Overcast
7:53 AM 25.0 °F 13.6 °F 16.0 °F 69% 30.13 in 10.0 mi NNW 12.7 mph 21.9 mph 0.00 in   Overcast
8:46 AM 24.8 °F 16.1 °F 15.8 °F 69% 30.10 in 10.0 mi North 8.1 mph - N/A   Overcast
8:53 AM 26.1 °F 16.8 °F 16.0 °F 66% 30.16 in 10.0 mi North 9.2 mph - N/A   Overcast
9:06 AM 24.8 °F 15.3 °F 15.8 °F 69% 30.12 in 10.0 mi North 9.2 mph - 0.00 in Snow Light Snow
9:53 AM 24.1 °F 15.2 °F 14.0 °F 65% 30.19 in 10.0 mi North 8.1 mph - 0.00 in Snow Light Snow
10:11 AM 24.8 °F 15.3 °F 12.2 °F 59% 30.15 in 10.0 mi North 9.2 mph - 0.00 in Snow Light Snow
10:53 AM 24.1 °F 16.0 °F 14.0 °F 65% 30.21 in 10.0 mi NNE 6.9 mph - 0.00 in Snow Light Snow
11:03 AM 24.8 °F 15.3 °F 14.0 °F 64% 30.16 in 10.0 mi North 9.2 mph - 0.00 in Snow Light Snow
11:53 AM 23.0 °F 13.9 °F 12.9 °F 65% 30.21 in 8.0 mi NNE 8.1 mph - 0.00 in Snow Light Snow
12:43 PM 21.2 °F 11.7 °F 12.2 °F 68% 30.14 in 6.0 mi NNE 8.1 mph - 0.00 in Snow Light Snow
12:53 PM 21.9 °F 11.7 °F 12.9 °F 68% 30.19 in 7.0 mi NNE 9.2 mph - 0.00 in Snow Light Snow
1:53 PM 21.9 °F 11.0 °F 12.9 °F 68% 30.18 in 10.0 mi NNE 10.4 mph - 0.00 in Snow Light Snow
2:53 PM 21.9 °F 11.0 °F 12.0 °F 66% 30.18 in 10.0 mi NE 10.4 mph - 0.00 in Snow Light Snow
3:53 PM 21.0 °F 9.9 °F 10.9 °F 65% 30.17 in 10.0 mi ENE 10.4 mph - 0.00 in Snow Light Snow
4:53 PM 21.0 °F 9.3 °F 12.0 °F 68% 30.20 in 10.0 mi ENE 11.5 mph - 0.00 in Snow Light Snow
5:53 PM 19.9 °F 8.6 °F 12.0 °F 71% 30.18 in 10.0 mi East 10.4 mph - 0.00 in Snow Light Snow
6:53 PM 19.9 °F 10.1 °F 12.0 °F 71% 30.20 in 10.0 mi East 8.1 mph - 0.00 in Snow Light Snow
7:31 PM 19.4 °F 7.9 °F 12.2 °F 74% 30.16 in 3.0 mi ENE 10.4 mph - 0.00 in Snow Light Snow
7:43 PM 19.4 °F 7.9 °F 14.0 °F 80% 30.16 in 2.0 mi ENE 10.4 mph - 0.00 in Snow Light Snow
7:53 PM 19.0 °F 6.8 °F 14.0 °F 81% 30.22 in 2.0 mi ENE 11.5 mph - 0.00 in Snow Light Snow
8:08 PM 19.4 °F 7.9 °F 14.0 °F 80% 30.15 in 2.5 mi ENE 10.4 mph - 0.00 in Snow Light Snow
8:25 PM 19.4 °F 7.2 °F 14.0 °F 80% 30.14 in 5.0 mi NE 11.5 mph - 0.00 in Snow Light Snow
8:53 PM 19.0 °F 6.1 °F 12.9 °F 77% 30.20 in 4.0 mi ENE 12.7 mph - 0.00 in Snow Light Snow
9:21 PM 17.6 °F 8.2 °F 12.2 °F 79% 30.16 in 2.0 mi NE 6.9 mph - 0.00 in Snow Light Snow
9:53 PM 18.0 °F 6.1 °F 14.0 °F 84% 30.20 in 2.0 mi NE 10.4 mph - 0.00 in Snow Light Snow
10:09 PM 17.6 °F 4.3 °F 14.0 °F 86% 30.16 in 1.8 mi NE 12.7 mph - 0.00 in Snow Light Snow
10:23 PM 17.6 °F 5.0 °F 12.2 °F 79% 30.16 in 3.0 mi NE 11.5 mph - 0.00 in Snow Light Snow
10:53 PM 17.1 °F 6.6 °F 12.0 °F 81% 30.21 in 4.0 mi NE 8.1 mph - 0.00 in Snow Light Snow
11:02 PM 15.8 °F 4.2 °F 12.2 °F 86% 30.15 in 4.0 mi NE 9.2 mph - 0.00 in Snow Light Snow
11:30 PM 15.8 °F 7.2 °F 10.4 °F 79% 30.15 in 7.0 mi NE 5.8 mph - 0.00 in   Overcast
11:37 PM 15.8 °F 4.2 °F 10.4 °F 79% 30.15 in 10.0 mi NE 9.2 mph - 0.00 in   Overcast
11:53 PM 15.1 °F 9.4 °F 10.9 °F 84% 30.23 in 10.0 mi NNE 3.5 mph - 0.00 in   Mostly Cloudy